| time (UTC) | temp F | wind direction | speed MPH | gust MPH | rain 1hr in | rain 24hr in | rain mn in | humidity % | barometer mb |
| 20260906033637 | 69 | 16 | 1.0 | 2.0 | 0.00 | 0.00 | 0.00 | 93 | 1015.7 |
| 20260906033131 | 69 | 24 | 2.0 | 3.0 | 0.00 | 0.00 | 0.00 | 92 | 1015.9 |
| 20260906032628 | 69 | 9 | 2.0 | 3.0 | 0.00 | 0.00 | 0.00 | 92 | 1015.7 |
| 20260906032128 | 69 | 74 | 2.0 | 3.0 | 0.00 | 0.00 | 0.00 | 92 | 1015.6 |
| 20260906031623 | 69 | 114 | 0.0 | 3.0 | 0.00 | 0.00 | 0.00 | 92 | 1015.8 |
| 20260906031119 | 69 | 8 | 2.0 | 3.0 | 0.00 | 0.00 | 0.00 | 92 | 1015.8 |
| 20260906030618 | 69 | 37 | 2.0 | 3.0 | 0.00 | 0.00 | 0.00 | 92 | 1015.7 |
| 20260906030113 | 69 | 42 | 2.0 | 4.0 | 0.00 | 0.00 | 0.00 | 92 | 1015.7 |
| 20260906025613 | 70 | 43 | 2.0 | 3.0 | 0.00 | 0.00 | 0.00 | 92 | 1015.8 |
| 20260906025111 | 70 | 53 | 0.0 | 2.0 | 0.00 | 0.00 | 0.00 | 92 | 1016.0 |
| 20260906024606 | 70 | 50 | 1.0 | 2.0 | 0.00 | 0.00 | 0.00 | 91 | 1015.7 |
| 20260906024102 | 70 | 70 | 1.0 | 3.0 | 0.00 | 0.00 | 0.00 | 91 | 1015.8 |
| 20260906023557 | 70 | 81 | 0.0 | 4.0 | 0.00 | 0.00 | 0.00 | 91 | 1015.7 |
| 20260906023051 | 70 | 67 | 1.0 | 4.0 | 0.00 | 0.00 | 0.00 | 90 | 1015.6 |
| 20260906022547 | 70 | 22 | 3.0 | 4.0 | 0.00 | 0.00 | 0.00 | 90 | 1015.4 |
| 20260906022043 | 70 | 0 | 2.0 | 3.0 | 0.00 | 0.00 | 0.00 | 90 | 1015.5 |
| 20260906021538 | 71 | 20 | 2.0 | 3.0 | 0.00 | 0.00 | 0.00 | 90 | 1015.6 |
| 20260906021037 | 71 | 63 | 0.0 | 3.0 | 0.00 | 0.00 | 0.00 | 90 | 1015.4 |
| 20260906020536 | 71 | 89 | 2.0 | 2.0 | 0.00 | 0.00 | 0.00 | 89 | 1015.6 |
| 20260906020036 | 71 | 26 | 2.0 | 2.0 | 0.00 | 0.00 | 0.00 | 89 | 1015.5 |
| 20260906015535 | 71 | 22 | 2.0 | 2.0 | 0.00 | 0.00 | 0.00 | 89 | 1015.7 |
| 20260906015035 | 71 | 354 | 1.0 | 4.0 | 0.00 | 0.00 | 0.00 | 89 | 1015.9 |
| 20260906014530 | 71 | 42 | 1.0 | 2.0 | 0.00 | 0.00 | 0.00 | 89 | 1015.9 |
| 20260906014026 | 71 | 18 | 2.0 | 4.0 | 0.00 | 0.00 | 0.00 | 90 | 1015.8 |
| 20260906013521 | 71 | 13 | 4.0 | 4.0 | 0.00 | 0.00 | 0.00 | 90 | 1015.7 |
| 20260906013017 | 71 | 350 | 3.0 | 4.0 | 0.00 | 0.00 | 0.00 | 90 | 1015.9 |
| 20260906012512 | 71 | 4 | 2.0 | 4.0 | 0.00 | 0.00 | 0.00 | 90 | 1015.5 |
| 20260906012011 | 71 | 356 | 2.0 | 3.0 | 0.00 | 0.00 | 0.00 | 90 | 1015.7 |
| 20260906011508 | 71 | 17 | 1.0 | 4.0 | 0.00 | 0.00 | 0.00 | 89 | 1016.1 |
| 20260906011008 | 71 | 338 | 2.0 | 4.0 | 0.00 | 0.00 | 0.00 | 89 | 1015.7 |
| 20260906010503 | 71 | 1 | 5.0 | 6.0 | 0.00 | 0.00 | 0.00 | 89 | 1015.9 |
| 20260906005959 | 71 | 38 | 3.0 | 4.0 | 0.00 | 0.00 | 0.00 | 89 | 1015.6 |
| 20260906005458 | 71 | 6 | 2.0 | 4.0 | 0.00 | 0.00 | 0.00 | 89 | 1015.6 |
| 20260906004957 | 71 | 347 | 4.0 | 4.0 | 0.00 | 0.00 | 0.00 | 89 | 1015.7 |
| 20260906004457 | 71 | 28 | 4.0 | 4.0 | 0.00 | 0.00 | 0.00 | 89 | 1015.4 |
| 20260906003952 | 71 | 354 | 2.0 | 2.0 | 0.00 | 0.00 | 0.00 | 89 | 1015.5 |
| 20260906003447 | 71 | 37 | 4.0 | 4.0 | 0.00 | 0.00 | 0.00 | 89 | 1015.4 |
| 20260906002937 | 71 | 341 | 6.0 | 7.0 | 0.00 | 0.00 | 0.00 | 89 | 1015.4 |
| 20260906002436 | 71 | 69 | 4.0 | 5.0 | 0.00 | 0.00 | 0.00 | 88 | 1015.4 |
| 20260906001931 | 71 | 317 | 2.0 | 5.0 | 0.00 | 0.00 | 0.00 | 88 | 1015.2 |
| 20260906001427 | 71 | 29 | 4.0 | 4.0 | 0.00 | 0.00 | 0.00 | 89 | 1015.3 |
| 20260906000917 | 71 | 15 | 2.0 | 3.0 | 0.00 | 0.00 | 0.00 | 89 | 1015.3 |
| 20260906000412 | 71 | 1 | 3.0 | 4.0 | 0.00 | 0.00 | 0.00 | 89 | 1015.3 |
| 20260905235907 | 71 | 9 | 2.0 | 6.0 | 0.00 | 0.00 | 0.00 | 89 | 1015.4 |
| 20260905235407 | 71 | 308 | 0.0 | 5.0 | 0.00 | 0.00 | 0.00 | 89 | 1015.2 |
| 20260905234902 | 71 | 351 | 3.0 | 7.0 | 0.00 | 0.00 | 0.00 | 89 | 1015.1 |
| 20260905234357 | 71 | 118 | 2.0 | 4.0 | 0.00 | 0.00 | 0.00 | 88 | 1015.2 |
| 20260905233852 | 72 | 275 | 2.0 | 9.0 | 0.00 | 0.00 | 0.00 | 88 | 1015.3 |
| 20260905233347 | 72 | 351 | 4.0 | 5.0 | 0.00 | 0.00 | 0.00 | 88 | 1015.1 |
| 20260905232846 | 72 | 344 | 3.0 | 5.0 | 0.00 | 0.00 | 0.00 | 88 | 1015.3 |
| 20260905232343 | 73 | 345 | 3.0 | 7.0 | 0.00 | 0.00 | 0.00 | 87 | 1015.0 |
| 20260905231838 | 73 | 351 | 2.0 | 4.0 | 0.00 | 0.00 | 0.00 | 86 | 1015.4 |
| 20260905231338 | 74 | 341 | 3.0 | 6.0 | 0.00 | 0.00 | 0.00 | 85 | 1014.9 |
| 20260905230835 | 74 | 337 | 3.0 | 5.0 | 0.00 | 0.00 | 0.00 | 85 | 1014.9 |
| 20260905230333 | 75 | 338 | 3.0 | 6.0 | 0.00 | 0.00 | 0.00 | 84 | 1014.9 |
| 20260905225832 | 75 | 14 | 3.0 | 5.0 | 0.00 | 0.00 | 0.00 | 83 | 1014.9 |
| 20260905225328 | 76 | 7 | 4.0 | 6.0 | 0.00 | 0.00 | 0.00 | 82 | 1014.8 |
| 20260905224827 | 76 | 352 | 1.0 | 4.0 | 0.00 | 0.00 | 0.00 | 83 | 1015.0 |
| 20260905224323 | 76 | 353 | 2.0 | 3.0 | 0.00 | 0.00 | 0.00 | 83 | 1014.8 |
| 20260905223818 | 76 | 352 | 3.0 | 4.0 | 0.00 | 0.00 | 0.00 | 83 | 1014.4 |
| 20260905223316 | 77 | 9 | 2.0 | 5.0 | 0.00 | 0.00 | 0.00 | 82 | 1014.5 |
| 20260905222811 | 77 | 64 | 2.0 | 8.0 | 0.00 | 0.00 | 0.00 | 80 | 1014.6 |
| 20260905222309 | 78 | 358 | 4.0 | 7.0 | 0.00 | 0.00 | 0.00 | 80 | 1014.4 |
| 20260905221805 | 78 | 6 | 3.0 | 4.0 | 0.00 | 0.00 | 0.00 | 80 | 1014.6 |
| 20260905221302 | 78 | 353 | 2.0 | 4.0 | 0.00 | 0.00 | 0.00 | 81 | 1014.6 |
| 20260905220757 | 77 | 18 | 4.0 | 7.0 | 0.00 | 0.00 | 0.00 | 81 | 1014.6 |
| 20260905220254 | 78 | 335 | 4.0 | 5.0 | 0.00 | 0.00 | 0.00 | 80 | 1014.5 |
| 20260905215753 | 79 | 353 | 4.0 | 6.0 | 0.00 | 0.00 | 0.00 | 79 | 1014.6 |
| 20260905215249 | 79 | 354 | 3.0 | 3.0 | 0.00 | 0.00 | 0.00 | 80 | 1014.6 |
| 20260905214744 | 79 | 41 | 1.0 | 4.0 | 0.00 | 0.00 | 0.00 | 81 | 1014.2 |
| 20260905214240 | 79 | 34 | 0.0 | 5.0 | 0.00 | 0.00 | 0.00 | 80 | 1014.2 |
| 20260905213735 | 80 | 318 | 3.0 | 4.0 | 0.00 | 0.00 | 0.00 | 80 | 1014.5 |
| 20260905213231 | 80 | 97 | 4.0 | 5.0 | 0.00 | 0.00 | 0.00 | 79 | 1014.2 |
| 20260905212726 | 79 | 15 | 3.0 | 4.0 | 0.00 | 0.00 | 0.00 | 79 | 1014.1 |
| 20260905212225 | 79 | 346 | 2.0 | 4.0 | 0.00 | 0.00 | 0.00 | 79 | 1014.2 |
| 20260905211720 | 79 | 343 | 2.0 | 3.0 | 0.00 | 0.00 | 0.00 | 77 | 1014.2 |
| 20260905211215 | 80 | 353 | 3.0 | 4.0 | 0.00 | 0.00 | 0.00 | 75 | 1014.1 |
| 20260905210712 | 80 | 349 | 4.0 | 5.0 | 0.00 | 0.00 | 0.00 | 75 | 1013.9 |
| 20260905210211 | 79 | 356 | 2.0 | 4.0 | 0.00 | 0.00 | 0.00 | 77 | 1014.0 |
| 20260905205711 | 79 | 357 | 2.0 | 2.0 | 0.00 | 0.00 | 0.00 | 78 | 1013.9 |
| 20260905205210 | 80 | 19 | 2.0 | 3.0 | 0.00 | 0.00 | 0.00 | 77 | 1014.0 |
| 20260905204710 | 80 | 12 | 2.0 | 3.0 | 0.00 | 0.00 | 0.00 | 76 | 1014.2 |
| 20260905204206 | 79 | 3 | 3.0 | 4.0 | 0.00 | 0.00 | 0.00 | 79 | 1014.4 |
| 20260905203700 | 79 | 341 | 3.0 | 6.0 | 0.00 | 0.00 | 0.00 | 77 | 1014.2 |
| 20260905203156 | 80 | 334 | 3.0 | 5.0 | 0.00 | 0.00 | 0.00 | 76 | 1014.3 |
| 20260905202651 | 79 | 34 | 2.0 | 3.0 | 0.00 | 0.00 | 0.00 | 78 | 1014.2 |
| 20260905202146 | 79 | 347 | 3.0 | 4.0 | 0.00 | 0.00 | 0.00 | 78 | 1014.2 |
| 20260905201642 | 80 | 345 | 3.0 | 6.0 | 0.00 | 0.00 | 0.00 | 78 | 1014.2 |
| 20260905201141 | 80 | 339 | 1.0 | 5.0 | 0.00 | 0.00 | 0.00 | 77 | 1014.2 |
| 20260905200637 | 80 | 325 | 2.0 | 4.0 | 0.00 | 0.00 | 0.00 | 79 | 1014.1 |
| 20260905200132 | 79 | 29 | 4.0 | 5.0 | 0.00 | 0.00 | 0.00 | 79 | 1014.2 |
| 20260905195625 | 79 | 21 | 3.0 | 4.0 | 0.00 | 0.00 | 0.00 | 80 | 1014.3 |
| 20260905195121 | 78 | 358 | 4.0 | 4.0 | 0.00 | 0.00 | 0.00 | 80 | 1014.4 |
| 20260905194621 | 79 | 332 | 4.0 | 6.0 | 0.00 | 0.00 | 0.00 | 80 | 1014.6 |
| 20260905194120 | 79 | 337 | 4.0 | 7.0 | 0.00 | 0.00 | 0.00 | 79 | 1014.4 |
| 20260905193615 | 79 | 336 | 0.0 | 4.0 | 0.00 | 0.00 | 0.00 | 80 | 1014.6 |
| 20260905193110 | 79 | 11 | 2.0 | 4.0 | 0.00 | 0.00 | 0.00 | 81 | 1014.7 |
| 20260905192606 | 78 | 103 | 0.0 | 4.0 | 0.00 | 0.00 | 0.00 | 83 | 1014.6 |
| 20260905192102 | 77 | 337 | 0.0 | 5.0 | 0.00 | 0.00 | 0.00 | 84 | 1014.7 |
| 20260905191600 | 77 | 67 | 2.0 | 6.0 | 0.00 | 0.00 | 0.00 | 84 | 1014.5 |
| 20260905191059 | 76 | 298 | 4.0 | 5.0 | 0.00 | 0.00 | 0.00 | 85 | 1014.8 |
| 20260905190557 | 76 | 341 | 2.0 | 4.0 | 0.00 | 0.00 | 0.00 | 86 | 1014.9 |
| 20260905190057 | 76 | 358 | 0.0 | 2.0 | 0.00 | 0.00 | 0.00 | 87 | 1014.8 |
| 20260905185556 | 76 | 329 | 2.0 | 4.0 | 0.00 | 0.00 | 0.00 | 87 | 1015.1 |
| 20260905185055 | 76 | 355 | 4.0 | 5.0 | 0.00 | 0.00 | 0.00 | 87 | 1014.9 |
| 20260905184550 | 76 | 346 | 1.0 | 4.0 | 0.00 | 0.00 | 0.00 | 86 | 1014.9 |
| 20260905184049 | 76 | 351 | 2.0 | 5.0 | 0.00 | 0.00 | 0.00 | 86 | 1014.9 |
| 20260905183549 | 76 | 347 | 2.0 | 4.0 | 0.00 | 0.00 | 0.00 | 85 | 1015.1 |
| 20260905183044 | 76 | 329 | 3.0 | 3.0 | 0.00 | 0.00 | 0.00 | 87 | 1014.8 |
| 20260905182538 | 76 | 356 | 2.0 | 4.0 | 0.00 | 0.00 | 0.00 | 86 | 1015.0 |
| 20260905182033 | 76 | 335 | 2.0 | 3.0 | 0.00 | 0.00 | 0.00 | 86 | 1015.0 |
| 20260905181527 | 76 | 26 | 2.0 | 2.0 | 0.00 | 0.00 | 0.00 | 87 | 1015.1 |
| 20260905181027 | 76 | 317 | 2.0 | 3.0 | 0.00 | 0.00 | 0.00 | 86 | 1015.0 |
| 20260905180521 | 76 | 355 | 4.0 | 4.0 | 0.00 | 0.00 | 0.00 | 87 | 1015.0 |
| 20260905180017 | 76 | 343 | 2.0 | 4.0 | 0.00 | 0.00 | 0.00 | 87 | 1014.9 |
| 20260905175516 | 76 | 7 | 4.0 | 5.0 | 0.00 | 0.00 | 0.00 | 87 | 1014.6 |
| 20260905175012 | 75 | 27 | 2.0 | 3.0 | 0.00 | 0.00 | 0.00 | 88 | 1014.9 |
| 20260905174507 | 75 | 283 | 1.0 | 4.0 | 0.00 | 0.00 | 0.00 | 88 | 1014.9 |
| 20260905174003 | 75 | 315 | 3.0 | 4.0 | 0.00 | 0.00 | 0.00 | 88 | 1014.8 |
| 20260905173459 | 75 | 18 | 2.0 | 3.0 | 0.00 | 0.00 | 0.00 | 88 | 1014.8 |
| 20260905172954 | 75 | 326 | 3.0 | 5.0 | 0.00 | 0.00 | 0.00 | 88 | 1014.9 |
| 20260905172452 | 75 | 322 | 3.0 | 5.0 | 0.00 | 0.00 | 0.00 | 88 | 1014.8 |
| 20260905171948 | 75 | 332 | 2.0 | 5.0 | 0.00 | 0.00 | 0.00 | 89 | 1014.8 |
| 20260905171444 | 75 | 354 | 2.0 | 4.0 | 0.00 | 0.00 | 0.00 | 89 | 1014.7 |
| 20260905170940 | 75 | 10 | 6.0 | 6.0 | 0.00 | 0.00 | 0.00 | 89 | 1014.8 |
| 20260905170436 | 75 | 295 | 4.0 | 5.0 | 0.00 | 0.00 | 0.00 | 89 | 1015.1 |
| 20260905165936 | 75 | 338 | 4.0 | 4.0 | 0.00 | 0.00 | 0.00 | 89 | 1015.1 |
| 20260905165431 | 75 | 335 | 4.0 | 5.0 | 0.00 | 0.00 | 0.00 | 88 | 1015.1 |
| 20260905164926 | 76 | 5 | 3.0 | 5.0 | 0.00 | 0.00 | 0.00 | 88 | 1014.9 |
| 20260905164426 | 76 | 326 | 2.0 | 4.0 | 0.00 | 0.00 | 0.00 | 88 | 1015.2 |
| 20260905163921 | 76 | 15 | 2.0 | 3.0 | 0.00 | 0.00 | 0.00 | 89 | 1015.0 |
| 20260905163417 | 76 | 348 | 2.0 | 7.0 | 0.00 | 0.00 | 0.00 | 88 | 1015.0 |
| 20260905162913 | 76 | 330 | 2.0 | 5.0 | 0.00 | 0.00 | 0.00 | 88 | 1014.8 |
| 20260905162408 | 76 | 345 | 3.0 | 4.0 | 0.00 | 0.00 | 0.00 | 89 | 1015.0 |
| 20260905161903 | 76 | 355 | 3.0 | 4.0 | 0.00 | 0.00 | 0.00 | 88 | 1015.0 |
| 20260905161401 | 76 | 336 | 3.0 | 4.0 | 0.00 | 0.00 | 0.00 | 88 | 1015.1 |
| 20260905160900 | 76 | 347 | 2.0 | 3.0 | 0.00 | 0.00 | 0.00 | 88 | 1015.1 |
| 20260905160354 | 76 | 336 | 3.0 | 3.0 | 0.00 | 0.00 | 0.00 | 89 | 1015.0 |
| 20260905155849 | 76 | 5 | 2.0 | 4.0 | 0.00 | 0.00 | 0.00 | 89 | 1014.8 |
| 20260905155348 | 76 | 312 | 3.0 | 5.0 | 0.00 | 0.00 | 0.00 | 89 | 1014.9 |
| 20260905154847 | 76 | 335 | 2.0 | 4.0 | 0.00 | 0.00 | 0.00 | 89 | 1014.5 |
| 20260905154343 | 76 | 316 | 4.0 | 8.0 | 0.00 | 0.00 | 0.00 | 88 | 1014.8 |
| 20260905153838 | 77 | 343 | 1.0 | 5.0 | 0.00 | 0.00 | 0.00 | 87 | 1014.7 |
| 20260905153335 | 77 | 315 | 1.0 | 3.0 | 0.00 | 0.00 | 0.00 | 88 | 1014.5 |
| 20260905152834 | 77 | 328 | 2.0 | 4.0 | 0.00 | 0.00 | 0.00 | 89 | 1014.5 |
| 20260905152334 | 77 | 326 | 3.0 | 5.0 | 0.00 | 0.00 | 0.00 | 89 | 1014.3 |
| 20260905151829 | 77 | 4 | 3.0 | 4.0 | 0.00 | 0.00 | 0.00 | 89 | 1014.4 |
| 20260905151325 | 77 | 332 | 2.0 | 4.0 | 0.00 | 0.00 | 0.00 | 89 | 1014.2 |
| 20260905150824 | 77 | 346 | 2.0 | 5.0 | 0.00 | 0.00 | 0.00 | 90 | 1014.4 |
| 20260905150319 | 77 | 324 | 2.0 | 5.0 | 0.00 | 0.00 | 0.00 | 89 | 1014.3 |
| 20260905145817 | 77 | 344 | 3.0 | 8.0 | 0.00 | 0.00 | 0.00 | 89 | 1014.2 |
| 20260905145316 | 76 | 19 | 2.0 | 5.0 | 0.00 | 0.00 | 0.00 | 92 | 1014.4 |
| 20260905144815 | 75 | 0 | 2.0 | 3.0 | 0.00 | 0.00 | 0.00 | 95 | 1014.3 |
| 20260905144311 | 74 | 5 | 2.0 | 4.0 | 0.00 | 0.00 | 0.00 | 96 | 1014.4 |
| 20260905143809 | 74 | 359 | 2.0 | 4.0 | 0.00 | 0.00 | 0.00 | 96 | 1014.4 |
| 20260905143304 | 74 | 8 | 2.0 | 4.0 | 0.00 | 0.00 | 0.00 | 97 | 1014.1 |
| 20260905142803 | 73 | 7 | 3.0 | 4.0 | 0.00 | 0.00 | 0.00 | 98 | 1014.1 |
| 20260905142257 | 73 | 340 | 2.0 | 3.0 | 0.00 | 0.00 | 0.00 | 98 | 1014.3 |
| 20260905141753 | 73 | 337 | 2.0 | 4.0 | 0.00 | 0.00 | 0.00 | 99 | 1014.2 |
| 20260905141249 | 73 | 352 | 3.0 | 5.0 | 0.00 | 0.00 | 0.00 | 99 | 1014.3 |
| 20260905140745 | 73 | 326 | 3.0 | 6.0 | 0.00 | 0.00 | 0.00 | 99 | 1014.1 |
| 20260905140244 | 73 | 326 | 2.0 | 3.0 | 0.00 | 0.00 | 0.00 | 99 | 1014.1 |
| 20260905135743 | 73 | 324 | 3.0 | 6.0 | 0.00 | 0.00 | 0.00 | 99 | 1014.1 |
| 20260905135240 | 73 | 322 | 3.0 | 4.0 | 0.00 | 0.00 | 0.00 | 99 | 1013.9 |
| 20260905134739 | 73 | 12 | 2.0 | 3.0 | 0.00 | 0.00 | 0.00 | 99 | 1014.3 |
| 20260905134239 | 72 | 6 | 2.0 | 3.0 | 0.00 | 0.00 | 0.00 | 99 | 1014.0 |
| 20260905133733 | 73 | 343 | 3.0 | 4.0 | 0.00 | 0.00 | 0.00 | 99 | 1014.0 |
| 20260905133228 | 72 | 345 | 2.0 | 2.0 | 0.00 | 0.00 | 0.00 | 99 | 1013.9 |
| 20260905132727 | 72 | 339 | 2.0 | 2.0 | 0.00 | 0.00 | 0.00 | 99 | 1014.0 |
| 20260905132223 | 72 | 22 | 2.0 | 3.0 | 0.00 | 0.00 | 0.00 | 99 | 1014.1 |
| 20260905131718 | 72 | 336 | 2.0 | 3.0 | 0.00 | 0.00 | 0.00 | 99 | 1014.5 |
| 20260905131214 | 72 | 329 | 2.0 | 3.0 | 0.00 | 0.00 | 0.00 | 99 | 1014.6 |
| 20260905130708 | 72 | 320 | 2.0 | 2.0 | 0.00 | 0.00 | 0.00 | 99 | 1014.1 |
| 20260905130207 | 71 | 7 | 1.0 | 3.0 | 0.00 | 0.00 | 0.00 | 99 | 1013.8 |
| 20260905125702 | 71 | 13 | 2.0 | 2.0 | 0.00 | 0.00 | 0.00 | 99 | 1014.0 |
| 20260905125157 | 71 | 347 | 2.0 | 3.0 | 0.00 | 0.00 | 0.00 | 99 | 1013.9 |
| 20260905124654 | 71 | 341 | 2.0 | 3.0 | 0.00 | 0.00 | 0.00 | 99 | 1014.0 |
| 20260905124149 | 71 | 351 | 2.0 | 5.0 | 0.00 | 0.00 | 0.00 | 99 | 1013.8 |
| 20260905123644 | 71 | 353 | 1.0 | 3.0 | 0.00 | 0.00 | 0.00 | 99 | 1013.6 |
| 20260905123142 | 71 | 39 | 3.0 | 4.0 | 0.00 | 0.00 | 0.00 | 99 | 1013.5 |
| 20260905122641 | 71 | 322 | 2.0 | 3.0 | 0.00 | 0.00 | 0.00 | 99 | 1013.5 |
| 20260905122136 | 71 | 344 | 2.0 | 3.0 | 0.00 | 0.00 | 0.00 | 99 | 1013.4 |
| 20260905121631 | 71 | 339 | 2.0 | 2.0 | 0.00 | 0.00 | 0.00 | 99 | 1013.2 |
| 20260905121126 | 71 | 8 | 3.0 | 6.0 | 0.00 | 0.00 | 0.00 | 99 | 1013.2 |
| 20260905120625 | 71 | 348 | 5.0 | 5.0 | 0.00 | 0.00 | 0.00 | 99 | 1013.2 |
| 20260905120120 | 71 | 332 | 2.0 | 3.0 | 0.00 | 0.00 | 0.00 | 99 | 1013.0 |
| 20260905115619 | 71 | 353 | 0.0 | 2.0 | 0.00 | 0.00 | 0.00 | 99 | 1013.0 |
| 20260905115114 | 71 | 1 | 3.0 | 3.0 | 0.00 | 0.00 | 0.00 | 99 | 1013.2 |
| 20260905114614 | 71 | 6 | 3.0 | 3.0 | 0.00 | 0.00 | 0.00 | 99 | 1012.7 |
| 20260905114113 | 71 | 28 | 2.0 | 3.0 | 0.00 | 0.00 | 0.00 | 99 | 1012.8 |
| 20260905113608 | 71 | 95 | 1.0 | 5.0 | 0.00 | 0.00 | 0.00 | 99 | 1012.7 |
| 20260905113103 | 71 | 320 | 2.0 | 3.0 | 0.00 | 0.00 | 0.00 | 99 | 1012.8 |
| 20260905112558 | 71 | 109 | 2.0 | 2.0 | 0.00 | 0.00 | 0.00 | 99 | 1012.6 |
| 20260905112054 | 71 | 299 | 2.0 | 2.0 | 0.00 | 0.00 | 0.00 | 99 | 1012.3 |
| 20260905111549 | 71 | 208 | 1.0 | 2.0 | 0.00 | 0.00 | 0.00 | 99 | 1012.5 |
| 20260905111048 | 71 | 336 | 2.0 | 3.0 | 0.00 | 0.00 | 0.00 | 99 | 1012.5 |
| 20260905110547 | 71 | 178 | 0.0 | 2.0 | 0.00 | 0.00 | 0.00 | 99 | 1012.4 |
| 20260905110043 | 71 | 17 | 1.0 | 1.0 | 0.00 | 0.00 | 0.00 | 99 | 1012.2 |
| 20260905105542 | 71 | 333 | 0.0 | 0.0 | 0.00 | 0.00 | 0.00 | 99 | 1012.4 |
| 20260905105041 | 71 | 321 | 0.0 | 1.0 | 0.00 | 0.00 | 0.00 | 99 | 1012.3 |
| 20260905104538 | 72 | 304 | 0.0 | 0.0 | 0.00 | 0.00 | 0.00 | 99 | 1012.4 |
| 20260905104037 | 72 | 325 | 0.0 | 1.0 | 0.00 | 0.00 | 0.00 | 99 | 1012.5 |
| 20260905103532 | 72 | 317 | 1.0 | 1.0 | 0.00 | 0.00 | 0.00 | 99 | 1012.0 |
| 20260905103029 | 72 | 330 | 2.0 | 2.0 | 0.00 | 0.00 | 0.00 | 99 | 1012.3 |
| 20260905102524 | 72 | 330 | 1.0 | 2.0 | 0.00 | 0.00 | 0.00 | 99 | 1012.3 |
| 20260905102020 | 72 | 333 | 0.0 | 1.0 | 0.00 | 0.00 | 0.00 | 99 | 1012.0 |
| 20260905101519 | 72 | 32 | 0.0 | 0.0 | 0.00 | 0.00 | 0.00 | 99 | 1012.2 |
| 20260905101017 | 72 | 321 | 0.0 | 0.0 | 0.00 | 0.00 | 0.00 | 99 | 1012.3 |
| 20260905100514 | 72 | 322 | 0.0 | 1.0 | 0.00 | 0.00 | 0.00 | 99 | 1012.4 |
| 20260905100013 | 72 | 331 | 1.0 | 2.0 | 0.00 | 0.00 | 0.00 | 99 | 1012.2 |
| 20260905095508 | 72 | 343 | 2.0 | 2.0 | 0.00 | 0.00 | 0.00 | 99 | 1012.2 |
| 20260905095003 | 72 | 348 | 1.0 | 2.0 | 0.00 | 0.00 | 0.00 | 99 | 1012.4 |
| 20260905094458 | 72 | 345 | 2.0 | 3.0 | 0.00 | 0.00 | 0.00 | 99 | 1012.0 |
| 20260905093957 | 72 | 333 | 2.0 | 2.0 | 0.00 | 0.00 | 0.00 | 99 | 1012.0 |
| 20260905093452 | 72 | 299 | 0.0 | 2.0 | 0.02 | 0.00 | 0.00 | 99 | 1012.0 |
| 20260905092948 | 72 | 309 | 0.0 | 2.0 | 0.02 | 0.00 | 0.00 | 99 | 1011.8 |
| 20260905092443 | 72 | 16 | 0.0 | 1.0 | 0.00 | 0.00 | 0.00 | 99 | 1012.2 |
| 20260905091939 | 72 | 352 | 0.0 | 0.0 | 0.00 | 0.00 | 0.00 | 99 | 1011.7 |
| 20260905091438 | 72 | 334 | 0.0 | 1.0 | 0.00 | 0.00 | 0.00 | 99 | 1012.0 |
| 20260905090938 | 72 | 14 | 1.0 | 2.0 | 0.00 | 0.00 | 0.00 | 99 | 1011.9 |
| 20260905090433 | 72 | 309 | 0.0 | 1.0 | 0.00 | 0.00 | 0.00 | 99 | 1011.7 |
| 20260905085932 | 72 | 342 | 0.0 | 2.0 | 0.00 | 0.00 | 0.00 | 99 | 1011.6 |
| 20260905085432 | 72 | 337 | 0.0 | 1.0 | 0.00 | 0.00 | 0.00 | 99 | 1011.8 |
| 20260905084928 | 72 | 330 | 0.0 | 1.0 | 0.00 | 0.00 | 0.00 | 99 | 1011.9 |
| 20260905084427 | 72 | 328 | 0.0 | 1.0 | 0.00 | 0.00 | 0.00 | 99 | 1011.5 |
| 20260905083922 | 72 | 328 | 0.0 | 1.0 | 0.00 | 0.00 | 0.00 | 99 | 1011.9 |
| 20260905083418 | 73 | 306 | 0.0 | 0.0 | 0.00 | 0.00 | 0.00 | 99 | 1011.7 |
| 20260905082913 | 73 | 313 | 0.0 | 0.0 | 0.00 | 0.00 | 0.00 | 99 | 1011.9 |
| 20260905082409 | 73 | 269 | 0.0 | 0.0 | 0.00 | 0.00 | 0.00 | 99 | 1011.9 |
| 20260905081910 | 73 | 242 | 0.0 | 1.0 | 0.00 | 0.00 | 0.00 | 99 | 1012.0 |
| 20260905081405 | 73 | 322 | 0.0 | 0.0 | 0.00 | 0.00 | 0.00 | 99 | 1011.7 |
| 20260905080903 | 73 | 326 | 2.0 | 2.0 | 0.00 | 0.00 | 0.00 | 99 | 1012.0 |
| 20260905080358 | 73 | 346 | 1.0 | 2.0 | 0.00 | 0.00 | 0.00 | 99 | 1011.7 |
| 20260905075857 | 73 | 1 | 1.0 | 1.0 | 0.00 | 0.00 | 0.00 | 99 | 1011.8 |
| 20260905075357 | 73 | 327 | 0.0 | 2.0 | 0.00 | 0.00 | 0.00 | 99 | 1011.7 |
| 20260905074856 | 73 | 327 | 2.0 | 2.0 | 0.00 | 0.00 | 0.00 | 99 | 1011.9 |
| 20260905074352 | 73 | 330 | 0.0 | 2.0 | 0.00 | 0.00 | 0.00 | 99 | 1011.9 |
| 20260905073847 | 73 | 335 | 0.0 | 2.0 | 0.00 | 0.00 | 0.00 | 99 | 1012.2 |
| 20260905073343 | 73 | 322 | 2.0 | 2.0 | 0.00 | 0.00 | 0.00 | 99 | 1011.8 |
| 20260905072837 | 73 | 342 | 2.0 | 2.0 | 0.00 | 0.00 | 0.00 | 99 | 1011.8 |
| 20260905072332 | 73 | 246 | 0.0 | 0.0 | 0.00 | 0.00 | 0.00 | 99 | 1011.7 |
| 20260905071829 | 73 | 327 | 2.0 | 2.0 | 0.00 | 0.00 | 0.00 | 99 | 1011.9 |
| 20260905071320 | 73 | 312 | 0.0 | 0.0 | 0.00 | 0.00 | 0.00 | 99 | 1012.0 |
| 20260905070819 | 73 | 322 | 0.0 | 0.0 | 0.00 | 0.00 | 0.00 | 99 | 1012.2 |
| 20260905070316 | 73 | 334 | 2.0 | 2.0 | 0.00 | 0.00 | 0.00 | 99 | 1012.0 |
| 20260905065814 | 73 | 325 | 0.0 | 2.0 | 0.00 | 0.00 | 0.00 | 99 | 1012.2 |
| 20260905065313 | 73 | 338 | 1.0 | 2.0 | 0.00 | 0.00 | 0.00 | 99 | 1012.0 |
| 20260905064808 | 73 | 339 | 2.0 | 2.0 | 0.00 | 0.00 | 0.00 | 99 | 1012.2 |
| 20260905064304 | 73 | 346 | 2.0 | 2.0 | 0.00 | 0.00 | 0.00 | 99 | 1011.8 |
| 20260905063803 | 73 | 337 | 1.0 | 1.0 | 0.00 | 0.00 | 0.00 | 99 | 1011.9 |
| 20260905063259 | 73 | 320 | 0.0 | 1.0 | 0.00 | 0.00 | 0.00 | 99 | 1012.3 |
| 20260905062755 | 73 | 333 | 0.0 | 1.0 | 0.00 | 0.00 | 0.00 | 99 | 1012.4 |
| 20260905062254 | 73 | 339 | 0.0 | 1.0 | 0.00 | 0.00 | 0.00 | 99 | 1012.3 |
| 20260905061749 | 73 | 336 | 0.0 | 1.0 | 0.00 | 0.00 | 0.00 | 99 | 1012.3 |
| 20260905061244 | 73 | 337 | 1.0 | 2.0 | 0.00 | 0.00 | 0.00 | 99 | 1012.5 |
| 20260905060744 | 73 | 328 | 1.0 | 2.0 | 0.00 | 0.00 | 0.00 | 99 | 1012.4 |
| 20260905060241 | 73 | 337 | 1.0 | 2.0 | 0.00 | 0.00 | 0.00 | 99 | 1012.4 |
| 20260905055739 | 73 | 313 | 1.0 | 1.0 | 0.00 | 0.00 | 0.00 | 99 | 1012.4 |
| 20260905055235 | 73 | 335 | 0.0 | 0.0 | 0.00 | 0.00 | 0.00 | 99 | 1012.4 |
| 20260905054729 | 73 | 333 | 0.0 | 0.0 | 0.00 | 0.00 | 0.00 | 99 | 1012.6 |
| 20260905054226 | 73 | 343 | 0.0 | 0.0 | 0.00 | 0.00 | 0.00 | 99 | 1012.5 |
| 20260905053725 | 73 | 332 | 0.0 | 1.0 | 0.00 | 0.00 | 0.00 | 98 | 1012.5 |
| 20260905053221 | 73 | 324 | 0.0 | 1.0 | 0.00 | 0.00 | 0.00 | 98 | 1012.6 |
| 20260905052720 | 73 | 326 | 0.0 | 1.0 | 0.00 | 0.00 | 0.00 | 98 | 1012.5 |
| 20260905052215 | 73 | 325 | 0.0 | 2.0 | 0.00 | 0.00 | 0.00 | 98 | 1012.8 |
| 20260905051715 | 73 | 349 | 0.0 | 2.0 | 0.00 | 0.00 | 0.00 | 98 | 1012.7 |
| 20260905051212 | 73 | 295 | 0.0 | 2.0 | 0.00 | 0.00 | 0.00 | 98 | 1012.4 |
| 20260905050708 | 73 | 321 | 0.0 | 2.0 | 0.00 | 0.00 | 0.00 | 98 | 1012.5 |
| 20260905050205 | 73 | 336 | 0.0 | 1.0 | 0.00 | 0.00 | 0.00 | 98 | 1012.6 |
| 20260905045704 | 73 | 310 | 0.0 | 1.0 | 0.00 | 0.28 | 0.28 | 98 | 1012.3 |
| 20260905045159 | 73 | 317 | 0.0 | 1.0 | 0.00 | 0.28 | 0.28 | 98 | 1012.4 |
| 20260905044654 | 73 | 329 | 0.0 | 2.0 | 0.00 | 0.28 | 0.28 | 98 | 1012.3 |
| 20260905044149 | 73 | 322 | 0.0 | 0.0 | 0.00 | 0.28 | 0.28 | 98 | 1012.2 |
| 20260905043648 | 73 | 327 | 0.0 | 2.0 | 0.00 | 0.28 | 0.28 | 98 | 1012.5 |
| 20260905043143 | 73 | 309 | 0.0 | 0.0 | 0.00 | 0.28 | 0.28 | 98 | 1012.5 |
| 20260905042642 | 73 | 352 | 0.0 | 2.0 | 0.00 | 0.28 | 0.28 | 98 | 1012.5 |
| 20260905042137 | 73 | 343 | 0.0 | 1.0 | 0.00 | 0.28 | 0.28 | 98 | 1012.8 |
| 20260905041633 | 73 | 0 | 0.0 | 0.0 | 0.00 | 0.28 | 0.28 | 98 | 1012.5 |
| 20260905041128 | 73 | 4 | 0.0 | 1.0 | 0.00 | 0.28 | 0.28 | 98 | 1012.5 |
| 20260905040628 | 73 | 293 | 0.0 | 2.0 | 0.00 | 0.28 | 0.28 | 98 | 1012.5 |
| 20260905040127 | 73 | 317 | 1.0 | 2.0 | 0.00 | 0.28 | 0.28 | 97 | 1012.5 |
| 20260905035622 | 73 | 343 | 2.0 | 2.0 | 0.00 | 0.28 | 0.28 | 97 | 1012.3 |
| 20260905035119 | 73 | 330 | 1.0 | 2.0 | 0.00 | 0.28 | 0.28 | 97 | 1012.4 |
| 20260905034615 | 73 | 343 | 1.0 | 2.0 | 0.00 | 0.28 | 0.28 | 97 | 1012.3 |
| 20260905034114 | 73 | 336 | 0.0 | 1.0 | 0.02 | 0.28 | 0.28 | 97 | 1012.2 |